Location: MAS Eagle Lake Observatory
(44.8103°N, 93.9397°W)
Time: 03:19:35
(UTC-05:00)

Envisat - Visible Passes

Search period start: 22 October 2017 00:00
Search period end: 01 November 2017 00:00
Orbit: 764 x 766 km, 98.2° (Epoch: 21 October)

Date Brightness Start Highest point End Pass type
(mag) Time Alt. Az. Time Alt. Az. Time Alt. Az.
22 Oct 4.6 19:24:49 15° ENE 19:25:07 15° ENE 19:27:48 10° NNE visible
22 Oct 3.8 21:05:02 45° NNW 21:05:02 45° NNW 21:08:34 10° NNW visible
23 Oct 3.7 20:28:03 38° NNE 20:28:03 38° NNE 20:31:40 10° N visible
23 Oct 5.5 22:08:16 18° WNW 22:08:16 18° WNW 22:10:05 10° NW visible
24 Oct 4.2 19:51:03 23° NE 19:51:03 23° NE 19:54:21 10° NNE visible
24 Oct 4.6 21:31:16 30° NW 21:31:16 30° NW 21:34:02 10° NNW visible
25 Oct 4.8 19:14:04 12° ENE 19:14:10 12° NE 19:15:58 10° NE visible
25 Oct 3.9 20:54:17 39° N 20:54:17 39° N 20:57:26 10° N visible
26 Oct 4.0 20:17:18 30° NNE 20:17:18 30° NNE 20:20:26 10° N visible
26 Oct 5.4 21:57:31 19° NW 21:57:31 19° NW 21:59:15 10° NW visible
27 Oct 4.5 19:40:18 18° NE 19:40:18 18° NE 19:42:56 10° NNE visible
27 Oct 4.6 21:20:31 29° NNW 21:20:31 29° NNW 21:23:00 10° NNW visible
28 Oct 4.1 20:43:31 32° N 20:43:31 32° N 20:46:17 10° N visible
28 Oct 6.0 22:23:44 11° NW 22:23:44 11° NW 22:24:00 10° NW visible
29 Oct 4.3 20:06:32 24° NNE 20:06:32 24° NNE 20:09:10 10° N visible
29 Oct 5.3 21:46:44 19° NW 21:46:44 19° NW 21:48:21 10° NNW visible
30 Oct 4.7 19:29:32 15° NE 19:29:32 15° NE 19:31:24 10° NNE visible
30 Oct 4.7 21:09:44 26° NNW 21:09:44 26° NNW 21:11:56 10° NNW visible
31 Oct 4.4 20:32:45 26° N 20:32:45 26° N 20:35:06 10° N visible
31 Oct 5.9 22:12:57 11° NW 22:12:57 11° NW 22:13:20 10° NW visible
